Temp
62 62 61 61 61 61 61 61 60 60 60 60 60 60 61 61 61 61 62 62 62 62 62 62 62 63 84 92 96 94 80 81 93 95 98 100 97 96 92 96 99 96 98 102 103 103 103
61 61 61 61 61 60 60 60 60 60 60 60 60 60 60 60 60 61 61 61 61 61 62 62 63 62 85 85 108 100 101 94 101 98 100 102 100 102 97 95 94 99 99 99 101 101 103
61 61 61 61 60 60 60 60 60 60 60 60 59 59 59 59 60 60 60 61 61 61 62 63 64 79 89 92 112 108 104 101 104 103 100 106 106 100 99 93 101 99 93 96 98 101 100
61 61 61 60 60 60 60 60 60 60 59 59 59 59 59 59 59 59 60 60 60 62 62 64 66 84 86 109 114 111 108 104 107 109 107 109 109 102 98 100 96 92 92 85 96 100 101
61 61 60 60 60 60 59 59 59 59 59 59 59 58 58 58 59 59 58 59 61 63 65 68 80 87 88 99 103 110 109 102 105 106 108 109 105 96 97 89 85 89 80 84 90 101 98
61 61 61 60 60 60 59 59 59 59 59 58 58 58 58 58 58 58 58 59 71 70 73 88 92 87 96 96 105 108 111 107 102 102 99 98 95 89 90 86 75 80 83 87 86 96 97
61 61 60 60 60 59 59 59 59 59 58 58 58 58 57 57 57 57 63 85 89 85 89 88 93 91 99 106 110 105 108 103 102 98 87 93 85 80 86 90 91 89 86 85 90 96 93
61 60 60 60 59 59 59 59 59 58 58 58 58 57 57 57 57 58 65 86 89 89 78 92 93 96 102 106 96 100 108 95 92 85 91 88 82 90 94 93 91 89 84 83 89 95 92
61 60 60 60 59 59 59 58 58 58 58 58 57 57 57 56 56 68 88 89 97 96 79 84 93 93 97 102 95 96 103 98 91 86 87 84 89 95 92 90 87 86 83 84 84 91 94
61 60 60 60 59 59 58 58 58 58 57 57 57 57 56 54 68 83 85 95 98 97 70 78 87 93 97 99 91 104 105 98 92 86 89 88 95 92 90 87 89 80 91 89 87 84 76
61 60 60 60 59 59 58 58 58 57 57 57 57 57 56 55 70 78 90 95 96 90 53 84 91 105 100 93 95 96 106 98 88 88 89 84 89 88 86 88 92 85 92 89 88 83 81
61 60 60 60 59 59 58 57 57 57 57 57 56 56 56 74 72 81 93 95 89 67 55 78 91 90 90 93 93 97 97 101 99 90 91 89 98 94 92 94 93 94 89 88 87 83 71
60 60 60 60 59 59 58 57 57 57 57 56 56 55 56 69 77 90 91 84 65 58 79 76 80 88 87 86 89 90 88 87 83 76 76 85 87 94 96 88 93 90 83 70 67 69 68
60 60 60 60 59 58 58 57 57 56 56 56 54 54 67 76 86 88 85 72 55 70 73 84 84 86 81 87 87 87 85 82 89 86 80 75 72 87 94 89 84 85 83 71 60 66 72
59 59 60 59 59 58 57 57 57 56 56 55 53 79 84 87 86 87 75 61 63 70 79 78 80 75 78 85 85 85 83 82 87 88 77 76 76 93 93 95 91 83 78 88 76 78 73
59 59 59 59 59 58 58 57 57 56 55 55 62 73 80 94 91 82 70 59 70 80 82 82 71 77 72 78 79 80 80 88 86 92 93 84 73 87 91 95 94 88 91 75 78 62 61
59 59 59 59 58 58 58 57 56 55 54 54 67 74 87 94 89 75 64 68 75 83 83 78 75 74 76 76 77 76 76 85 89 91 93 89 82 80 88 82 83 84 81 82 82 78 67
59 59 58 58 58 58 58 57 56 54 53 62 73 68 88 91 71 73 69 74 69 80 85 82 81 78 75 77 75 75 75 79 86 87 84 89 84 75 79 90 94 89 84 83 73 68 75
59 59 58 58 58 58 58 57 56 54 53 63 66 74 90 86 65 70 77 78 80 79 80 79 77 80 81 75 70 77 79 86 88 86 80 85 79 70 74 83 88 84 86 86 84 80 70
59 59 58 57 58 58 58 58 57 55 55 60 68 68 79 80 78 72 70 72 73 82 79 80 78 80 78 75 79 74 77 84 89 88 73 83 79 73 69 75 82 76 84 86 83 73 74
59 59 58 57 57 58 58 58 57 56 55 60 70 71 76 61 72 74 74 73 71 71 80 81 75 76 74 69 73 73 79 82 86 78 85 83 71 76 81 83 83 80 80 83 80 81 75
59 59 58 57 57 57 58 58 58 56 54 62 66 68 73 70 72 71 67 69 70 72 71 71 72 75 76 72 73 71 77 78 77 83 76 81 71 76 74 82 82 79 83 83 83 84 83
58 58 58 57 57 57 58 58 58 56 54 69 76 75 70 63 70 71 71 70 72 75 76 78 76 75 72 77 83 86 87 85 84 79 74 70 74 71 67 67 68 68 80 77 83 85 83
58 58 58 57 57 57 57 58 58 58 55 67 70 71 65 62 70 69 69 70 73 73 70 75 77 75 81 88 87 86 86 85 86 84 77 59 61 71 67 71 59 71 80 77 81 78 75
58 57 58 57 57 57 57 58 58 58 56 63 70 69 65 61 69 71 71 67 75 74 73 74 78 82 86 82 74 69 70 72 78 83 81 78 73 68 64 66 70 68 66 64 73 63 76
58 57 57 57 57 57 57 58 58 57 56 61 70 75 68 62 65 71 70 73 69 69 72 73 79 84 84 77 72 61 61 67 67 73 83 82 78 70 66 60 57 55 57 60 70 60 72
58 57 57 57 57 57 58 58 58 57 56 59 67 72 67 61 69 71 68 67 73 71 68 73 74 75 82 74 60 59 61 72 65 64 67 70 70 66 66 63 69 73 71 77 60 59 74
57 57 57 57 57 57 57 58 58 58 57 60 67 75 67 62 67 71 75 69 71 72 66 71 71 76 74 66 49 54 53 66 64 55 62 60 58 66 68 64 59 74 75 65 68 71 73
56 57 56 56 56 57 57 57 58 58 57 57 63 77 77 65 66 73 74 76 75 75 70 72 63 56 72 68 68 52 49 64 59 48 60 60 51 55 66 64 72 74 71 74 76 72 73
MSLP
1023.84 1023.53 1023.18 1022.84 1022.54 1022.16 1021.79 1021.36 1020.96 1020.61 1020.18 1019.66 1019.10 1018.55 1018.04 1017.43 1016.66 1015.96 1015.24 1014.56 1013.83 1013.23 1012.84 1012.43 1011.81 1011.30 1009.82 1007.86 1005.00 1005.00 1005.52 1005.65 1005.72 1005.63 1004.46 1003.32 1002.74 1002.05 1001.17 1000.34 999.40 998.69 998.30 997.87 997.43 996.90 996.43
1024.23 1023.85 1023.47 1023.18 1022.88 1022.47 1022.08 1021.55 1021.07 1020.62 1020.18 1019.66 1019.09 1018.45 1017.72 1017.09 1016.51 1015.79 1015.04 1014.29 1013.44 1012.77 1012.31 1012.01 1011.73 1011.58 1010.05 1006.47 1003.75 1004.58 1004.86 1005.29 1004.72 1004.82 1003.82 1003.06 1002.29 1001.75 1001.19 1000.71 1000.14 999.34 998.71 998.29 998.05 997.04 996.37
1024.30 1024.03 1023.77 1023.52 1023.17 1022.69 1022.27 1021.78 1021.31 1020.89 1020.40 1019.78 1019.09 1018.40 1017.77 1017.02 1016.18 1015.37 1014.62 1013.80 1013.04 1012.37 1011.76 1011.48 1011.52 1010.79 1008.27 1005.04 1003.01 1003.53 1004.27 1004.34 1004.11 1003.86 1003.14 1002.52 1002.13 1001.91 1001.52 1000.95 1000.26 999.50 998.85 998.29 997.62 996.66 996.00
1024.52 1024.23 1023.96 1023.55 1023.30 1022.85 1022.55 1022.13 1021.59 1020.95 1020.48 1019.96 1019.22 1018.47 1017.77 1016.97 1016.19 1015.19 1014.07 1013.07 1012.25 1011.59 1011.23 1010.90 1011.00 1009.94 1006.27 1003.30 1002.47 1002.42 1003.31 1003.52 1003.64 1003.07 1002.67 1002.11 1001.78 1001.78 1001.69 1001.32 1000.63 999.83 999.17 998.01 996.87 996.05 995.79
1024.54 1024.30 1023.99 1023.64 1023.47 1022.95 1022.67 1022.22 1021.82 1021.13 1020.65 1020.16 1019.24 1018.42 1017.59 1016.80 1015.94 1015.00 1013.79 1012.30 1011.10 1010.54 1010.60 1010.53 1010.01 1008.33 1004.36 1002.83 1002.40 1002.18 1002.45 1002.53 1002.63 1002.57 1002.23 1002.18 1002.07 1001.99 1001.53 1001.00 1000.28 999.35 998.63 997.54 996.38 995.49 995.42
1024.57 1024.28 1024.05 1023.60 1023.26 1022.88 1022.66 1022.11 1021.64 1021.20 1020.54 1020.27 1019.27 1018.51 1017.60 1016.73 1015.63 1014.81 1013.38 1011.02 1009.49 1009.80 1009.84 1009.19 1008.02 1006.87 1003.52 1001.66 1001.40 1001.50 1001.75 1002.01 1001.69 1001.85 1001.92 1001.87 1001.97 1001.56 1000.93 1000.29 999.24 998.27 997.40 996.70 995.97 995.32 995.11
1024.65 1024.42 1024.13 1023.85 1023.60 1023.24 1022.69 1022.18 1021.75 1021.34 1020.52 1020.14 1019.31 1018.50 1017.48 1016.46 1015.25 1014.59 1013.52 1009.92 1008.78 1008.83 1007.81 1006.09 1004.15 1003.39 1001.39 1000.50 1000.69 1000.49 1000.95 1001.58 1001.63 1001.34 1001.08 1001.19 1001.14 1000.39 999.79 999.03 998.51 997.97 997.49 996.68 995.93 995.57 995.60
1024.66 1024.48 1024.23 1023.95 1023.63 1023.16 1022.83 1022.54 1022.03 1021.46 1020.71 1020.09 1019.15 1018.29 1017.32 1016.11 1015.02 1014.01 1013.68 1010.24 1008.36 1008.49 1006.57 1005.11 1003.85 1002.46 1001.26 1000.33 1000.06 1000.20 1000.49 1000.70 1001.02 1000.71 1000.65 1000.51 999.71 999.56 998.93 998.43 997.96 997.69 997.64 997.33 996.88 996.34 996.20
1024.51 1024.32 1024.06 1023.77 1023.46 1023.04 1022.73 1022.26 1021.70 1021.21 1020.61 1020.03 1019.27 1018.67 1017.63 1016.28 1014.74 1013.05 1011.06 1009.31 1008.47 1007.95 1006.35 1003.87 1002.82 1001.58 1000.70 1000.34 999.47 999.50 999.60 999.87 1000.00 1000.16 999.78 999.21 998.60 998.09 997.93 997.83 997.74 997.90 997.85 997.33 996.89 996.37 995.93
1024.19 1023.99 1023.78 1023.57 1023.29 1022.95 1022.61 1022.17 1021.67 1021.14 1020.60 1019.97 1019.36 1018.79 1017.79 1016.67 1013.98 1012.18 1010.02 1008.82 1008.42 1007.88 1005.74 1002.20 1000.25 999.34 999.70 999.30 998.56 998.88 998.85 998.92 999.30 998.95 998.72 998.22 997.72 997.35 996.94 997.11 997.50 997.42 997.36 996.98 996.80 996.55 996.04
1023.94 1023.82 1023.68 1023.47 1023.22 1022.95 1022.60 1022.15 1021.69 1021.14 1020.60 1019.94 1019.34 1018.81 1017.83 1017.99 1015.70 1012.29 1009.70 1009.38 1008.74 1007.98 1004.69 1000.10 997.28 996.14 997.21 997.78 997.85 997.54 998.08 998.26 997.99 998.14 998.43 997.43 997.05 996.69 996.41 996.61 996.80 997.01 997.14 996.89 996.54 996.53 996.44
1023.66 1023.57 1023.49 1023.38 1023.16 1022.86 1022.51 1022.12 1021.64 1021.03 1020.36 1019.61 1018.84 1018.34 1018.11 1014.93 1014.80 1012.12 1010.29 1009.49 1008.93 1007.34 1003.19 999.92 997.48 995.82 996.05 996.61 996.74 996.95 996.81 997.40 997.47 997.59 997.44 996.87 996.59 996.03 995.84 996.06 996.63 996.84 996.93 996.96 996.86 996.85 996.09
1023.35 1023.26 1023.17 1023.06 1022.91 1022.64 1022.43 1022.07 1021.57 1020.96 1020.22 1019.35 1018.38 1017.52 1017.89 1016.41 1012.66 1011.05 1010.73 1009.77 1008.22 1005.54 1002.32 999.68 998.19 996.56 996.21 996.20 996.04 996.30 996.51 995.91 996.39 996.74 996.62 996.60 996.13 995.85 995.68 995.77 996.13 996.37 996.74 996.74 996.75 996.16 995.06
1022.89 1022.82 1022.75 1022.72 1022.64 1022.51 1022.27 1021.91 1021.45 1020.80 1020.09 1019.11 1017.93 1016.25 1014.27 1013.52 1011.76 1011.32 1010.60 1009.57 1007.13 1004.14 1002.28 1000.40 998.73 997.18 996.38 995.96 995.89 995.78 995.89 995.24 995.43 996.04 995.87 995.74 995.55 995.48 995.27 995.34 995.92 995.83 996.32 996.36 995.93 995.07 993.99
1022.42 1022.39 1022.38 1022.37 1022.36 1022.29 1022.13 1021.80 1021.30 1020.56 1019.76 1018.78 1017.12 1013.63 1011.65 1010.78 1011.50 1011.12 1010.41 1008.21 1005.78 1004.27 1002.27 1000.45 999.54 998.38 996.86 996.01 995.34 995.17 995.06 994.99 994.86 995.14 995.34 995.17 994.65 994.45 994.35 994.49 995.18 995.66 995.64 996.06 995.95 995.40 994.72
1021.99 1021.98 1021.98 1022.06 1022.06 1022.09 1021.97 1021.67 1021.16 1020.46 1019.58 1018.72 1017.31 1013.51 1010.37 1009.10 1010.39 1010.56 1009.51 1007.27 1005.57 1003.96 1002.55 1001.18 1000.18 999.32 997.97 996.98 996.31 995.55 994.85 994.43 994.43 994.35 994.39 994.58 994.58 994.25 993.67 993.49 993.72 994.43 995.45 995.73 995.55 995.34 994.86
1021.61 1021.55 1021.62 1021.69 1021.78 1021.84 1021.76 1021.59 1021.18 1020.50 1019.35 1017.69 1016.62 1012.11 1009.39 1009.33 1010.01 1009.71 1007.90 1006.22 1004.90 1003.63 1002.83 1001.65 1000.77 1000.02 999.08 998.27 997.53 996.61 996.20 995.05 994.77 993.68 993.66 994.02 994.17 993.87 993.77 993.26 993.04 993.59 994.44 995.04 995.13 995.05 994.79
1021.24 1021.18 1021.21 1021.35 1021.49 1021.57 1021.58 1021.48 1021.21 1020.70 1019.41 1017.01 1015.17 1011.35 1009.30 1009.37 1009.30 1008.04 1006.71 1005.65 1004.79 1003.44 1002.19 1001.45 1001.27 1001.27 1000.39 999.55 998.91 997.68 996.83 996.29 995.47 994.43 993.35 993.55 993.51 993.39 993.28 992.70 993.05 993.38 993.73 994.37 994.88 995.15 995.09
1020.94 1020.79 1020.75 1020.95 1021.18 1021.29 1021.36 1021.31 1021.19 1021.00 1020.64 1019.11 1015.15 1011.21 1008.83 1009.07 1008.14 1006.51 1005.26 1004.16 1003.67 1003.08 1002.42 1001.87 1001.51 1001.23 1001.03 1000.48 999.78 998.67 997.90 997.75 996.68 995.73 995.29 994.52 993.39 993.57 993.38 992.98 992.89 993.11 993.48 993.71 994.23 994.89 994.99
1020.63 1020.51 1020.44 1020.58 1020.88 1021.08 1021.21 1021.20 1021.15 1021.04 1020.82 1020.00 1015.57 1010.63 1008.23 1008.41 1008.05 1007.18 1005.91 1004.58 1003.50 1003.01 1002.92 1002.74 1002.29 1001.79 1001.08 1000.44 999.85 999.03 998.55 997.80 996.72 996.23 996.30 995.65 994.84 994.49 993.60 993.16 993.36 993.41 993.03 993.20 993.48 993.91 994.61
1020.26 1020.23 1020.18 1020.31 1020.60 1020.86 1021.01 1021.05 1021.06 1020.90 1020.62 1020.09 1015.17 1010.90 1009.53 1009.43 1007.19 1006.65 1006.13 1005.26 1004.47 1003.70 1002.96 1002.56 1002.52 1002.08 1001.75 1000.96 1000.00 999.12 998.45 997.81 997.52 996.98 996.67 996.37 995.98 995.49 994.31 993.94 993.44 994.19 994.31 993.63 993.64 993.92 994.51
1019.91 1019.93 1019.92 1020.08 1020.35 1020.62 1020.82 1020.88 1020.87 1020.72 1020.34 1019.21 1015.01 1012.80 1011.29 1010.02 1008.59 1007.67 1006.32 1005.80 1005.13 1004.55 1004.54 1003.18 1002.48 1002.14 1001.73 1000.83 1000.48 999.68 998.66 997.92 997.43 997.25 997.92 997.50 997.05 996.57 995.55 994.71 994.61 994.35 994.36 994.07 994.06 994.02 994.89
1019.68 1019.65 1019.62 1019.80 1020.06 1020.30 1020.56 1020.72 1020.71 1020.65 1020.46 1017.60 1014.80 1014.31 1013.31 1010.84 1008.98 1007.09 1006.02 1005.94 1005.14 1004.98 1004.72 1003.98 1002.97 1002.00 1001.67 1000.63 999.91 999.08 998.77 998.32 997.84 997.83 998.83 999.37 998.25 997.46 996.70 996.74 996.38 995.93 995.26 995.28 994.70 994.72 995.56
1019.33 1019.33 1019.31 1019.46 1019.74 1020.04 1020.28 1020.48 1020.59 1020.60 1020.54 1018.99 1016.99 1015.54 1013.96 1011.32 1009.09 1007.57 1007.46 1007.11 1005.81 1005.51 1004.86 1004.26 1003.41 1002.10 1001.51 1000.87 1000.33 999.79 998.92 998.39 997.97 997.88 998.88 999.92 999.99 998.63 998.06 997.74 998.06 997.51 997.17 997.47 996.26 997.26 998.72
1018.98 1019.06 1018.99 1019.13 1019.37 1019.74 1020.08 1020.34 1020.53 1020.48 1020.46 1019.47 1017.69 1016.04 1014.54 1012.43 1010.20 1008.38 1007.52 1007.71 1006.26 1005.87 1004.96 1004.32 1003.41 1002.53 1001.92 1001.37 1000.92 1000.65 1000.17 999.38 998.25 998.09 998.76 999.42 999.52 998.86 998.49 998.09 998.63 999.08 1000.20 1001.32 999.34 1000.70 1001.28
1018.57 1018.55 1018.63 1018.80 1019.06 1019.40 1019.73 1020.09 1020.34 1020.38 1020.39 1019.76 1017.57 1016.11 1015.44 1013.72 1010.67 1009.97 1008.75 1007.77 1006.73 1006.23 1005.28 1004.81 1004.47 1003.58 1002.22 1001.60 1001.15 1001.12 1000.41 999.84 999.47 998.86 998.73 998.87 999.49 1000.00 999.52 999.41 999.80 1002.21 1002.99 1001.66 1002.49 1001.37 1003.83
1018.16 1018.10 1018.28 1018.50 1018.74 1019.09 1019.43 1019.77 1020.12 1020.22 1020.23 1020.04 1017.80 1016.82 1015.98 1014.11 1011.37 1010.91 1009.40 1008.86 1008.19 1007.43 1006.40 1005.48 1005.09 1004.10 1002.73 1002.02 1003.29 1003.46 1002.14 1000.80 1000.22 1000.25 999.90 999.37 999.79 999.73 999.92 1000.04 1000.49 1001.92 1002.88 1002.28 1001.41 1004.29 1003.70
1017.71 1017.76 1017.99 1018.17 1018.55 1018.93 1019.31 1019.61 1019.92 1020.07 1020.05 1019.79 1017.57 1016.25 1016.26 1014.77 1012.30 1011.50 1010.62 1009.86 1009.15 1008.23 1007.41 1006.80 1005.63 1004.08 1003.51 1003.17 1005.75 1005.70 1005.25 1003.27 1002.98 1003.77 1003.20 1002.48 1002.42 1000.75 1000.41 1000.34 1001.45 1002.68 1002.31 1002.86 1004.09 1003.76 1004.00
1017.38 1017.51 1017.63 1017.84 1018.21 1018.69 1019.13 1019.57 1019.84 1019.99 1020.02 1020.03 1017.84 1015.62 1015.54 1015.23 1013.19 1011.82 1011.14 1010.50 1009.95 1009.41 1008.85 1007.94 1007.85 1007.62 1005.88 1005.18 1005.15 1007.15 1006.75 1005.17 1004.62 1004.45 1005.21 1004.06 1005.39 1004.34 1001.76 1001.90 1002.48 1003.05 1004.02 1004.93 1005.08 1005.31 1005.24
Wind_Speed
15 15 16 16 17 17 18 18 18 18 19 20 21 21 21 22 22 22 21 21 22 20 18 18 17 15 11 9 17 8 7 8 12 13 16 17 17 17 16 16 19 17 13 14 12 19 4
14 15 15 16 16 17 17 18 19 20 19 20 21 21 22 23 22 22 23 22 22 21 19 17 15 12 7 16 5 11 11 13 12 15 17 16 16 16 19 17 18 18 19 15 17 22 12
14 14 14 15 15 17 18 18 19 19 20 21 21 22 23 23 25 25 24 24 23 21 20 17 11 6 11 19 11 11 11 12 15 16 16 16 15 17 17 18 21 20 18 16 19 21 10
13 13 14 14 15 16 17 17 19 20 21 21 21 22 23 24 25 26 27 28 25 22 19 15 6 8 10 18 12 13 13 14 15 14 16 15 9 13 18 17 21 22 22 15 18 21 6
13 13 14 14 15 15 16 17 18 19 19 21 22 24 24 24 25 27 28 31 29 21 12 9 6 9 18 1 15 15 15 17 16 16 13 12 9 14 17 18 17 17 16 20 21 18 5
12 13 13 15 16 17 17 18 19 19 18 20 21 22 24 25 26 27 31 32 11 5 7 10 11 11 18 21 16 16 17 18 16 14 14 15 11 14 15 14 14 18 17 18 16 12 15
10 11 12 13 13 14 16 17 19 19 19 21 21 23 26 27 27 26 18 12 6 7 10 15 11 13 23 6 9 13 20 18 19 18 18 17 14 15 20 20 20 19 17 18 17 16 11
10 10 11 12 13 13 14 15 16 17 19 21 23 25 26 29 30 28 11 9 7 8 13 18 23 26 25 23 12 18 16 21 21 21 20 19 19 21 20 19 18 13 13 16 16 15 13
10 10 10 11 12 13 14 15 16 18 20 20 21 23 25 30 31 12 11 14 9 13 11 22 23 26 26 25 21 18 20 20 21 22 21 22 21 23 23 17 17 13 16 17 17 16 14
10 10 11 12 13 14 15 16 17 18 20 21 21 22 24 30 9 14 12 10 11 12 10 18 24 31 29 29 29 26 23 21 23 25 24 20 21 21 17 13 13 16 18 19 16 16 11
11 11 11 12 13 13 14 15 17 18 19 21 21 21 22 10 13 9 16 13 13 9 9 12 19 29 30 33 27 24 26 26 26 25 22 21 22 20 17 18 13 15 17 16 14 11 15
12 11 11 11 11 12 13 15 17 18 20 23 24 22 20 11 8 16 16 13 10 9 14 14 21 10 25 27 27 27 24 28 25 28 26 25 22 21 17 18 16 16 17 17 12 13 14
13 13 12 11 10 11 12 15 16 18 21 24 26 27 15 10 9 14 12 9 9 11 8 20 23 20 17 20 22 26 28 28 25 23 21 27 26 24 21 11 14 13 15 11 12 13 14
13 13 12 11 10 10 11 14 16 18 21 24 27 33 8 10 10 12 9 10 15 12 21 19 25 22 22 19 23 24 27 24 25 27 19 21 22 25 23 20 16 16 14 12 16 14 11
13 13 13 11 10 10 10 13 15 18 21 24 31 10 9 13 13 7 8 11 14 15 22 21 19 21 22 18 16 23 28 27 25 26 23 21 28 20 26 25 21 19 18 16 18 19 15
12 13 12 11 10 9 10 12 15 19 21 22 10 11 12 9 6 7 9 15 20 24 24 22 19 18 17 18 18 21 20 18 30 31 24 23 22 25 25 22 26 25 16 16 12 16 16
11 12 12 11 9 9 9 11 14 18 22 27 7 8 7 7 5 7 11 16 18 21 23 21 15 17 20 20 20 15 15 19 19 26 23 25 21 22 20 24 16 16 15 17 18 13 13
10 11 11 11 9 9 8 8 12 15 24 12 7 7 8 4 7 8 12 17 19 21 21 17 11 16 21 22 14 18 8 16 27 23 23 22 16 17 23 20 22 16 21 20 11 13 13
10 10 11 11 9 9 8 7 10 11 12 8 6 11 8 5 9 11 16 18 14 16 17 14 17 17 17 20 19 17 17 10 20 20 14 13 8 9 20 16 12 18 19 19 18 14 17
9 10 10 11 10 9 7 7 8 9 8 7 7 6 6 6 11 16 14 15 15 9 13 16 17 20 19 17 20 17 18 20 16 10 12 9 10 15 13 17 17 11 22 18 17 11 14
9 9 9 11 9 8 8 7 8 10 7 6 7 5 13 7 7 9 15 15 12 16 13 13 11 17 18 18 19 19 19 18 16 5 6 6 10 15 15 18 13 13 14 19 19 18 15
9 8 9 11 10 9 8 7 8 10 12 5 7 11 12 14 16 15 12 12 11 14 16 18 14 10 18 16 18 20 19 18 13 7 14 15 10 12 19 19 18 14 18 24 25 22 20
9 9 9 11 11 11 8 8 7 8 8 6 9 11 9 10 16 15 7 11 10 11 11 21 15 15 15 18 15 14 19 18 17 5 1 8 10 8 15 4 25 8 16 17 9 14 6
10 9 9 12 12 11 10 8 8 7 6 7 9 8 9 12 15 9 4 9 15 10 16 11 21 11 12 16 14 13 17 17 21 9 8 6 21 7 10 9 15 4 15 21 8 16 22
10 9 9 12 14 12 11 9 8 7 6 7 9 8 7 11 15 15 4 10 11 11 18 13 14 9 9 12 9 11 13 18 18 16 14 18 13 9 8 11 5 4 12 11 14 19 16
11 10 10 12 14 13 12 11 9 7 6 7 8 8 6 9 11 20 15 14 13 9 14 16 3 19 15 10 8 12 12 15 15 17 13 7 4 7 10 14 15 4 9 19 39 13 11
11 10 9 12 15 14 13 12 10 7 6 6 8 9 6 11 18 15 15 11 13 14 11 8 12 12 17 8 6 5 11 10 5 9 13 12 10 13 11 10 7 12 15 20 6 7 10
8 9 9 11 14 14 13 12 10 8 6 5 8 6 6 9 18 21 19 14 12 11 10 13 10 4 8 6 5 5 3 7 2 4 12 6 8 11 12 14 10 15 5 7 7 8 11
8 9 9 12 15 14 13 12 10 8 6 4 8 4 4 8 13 25 23 23 22 19 13 9 3 6 8 6 4 7 5 6 5 4 28 2 3 12 6 5 10 15 16 10 8 8 8
Wind_Direction
25 22 19 16 11 9 5 2 359 357 355 351 347 343 339 336 332 328 325 321 317 315 313 313 317 326 322 255 261 124 147 164 181 218 224 237 243 258 266 278 293 302 271 299 316 301 337
21 18 16 13 10 7 3 0 358 355 351 348 345 340 337 334 330 326 321 317 313 310 308 309 313 315 255 268 132 134 173 162 195 210 231 249 248 266 279 302 294 292 299 305 296 284 278
17 15 14 11 9 5 0 358 356 352 349 346 342 338 334 331 328 324 319 314 309 304 301 302 300 271 266 255 291 153 177 197 205 210 238 237 258 271 279 277 276 282 278 289 264 268 258
12 11 8 9 5 5 359 356 352 351 346 342 340 336 332 329 325 321 317 312 304 297 293 287 272 243 261 270 266 206 199 209 215 226 245 267 286 281 273 277 281 281 279 271 266 257 200
6 4 4 5 1 2 356 354 350 349 344 337 337 334 331 327 324 320 316 308 297 284 260 270 240 225 269 124 218 239 214 219 215 231 242 250 263 266 264 251 256 247 255 264 259 265 186
0 359 357 359 358 356 351 352 349 345 343 334 336 332 329 324 321 320 317 295 278 288 204 234 255 276 250 247 225 220 214 223 227 222 236 232 240 254 247 247 256 262 236 235 246 247 191
348 350 352 351 349 349 349 349 345 339 339 334 335 331 327 322 320 319 330 317 246 190 224 256 242 221 281 230 233 206 206 215 235 247 230 227 232 241 248 244 239 260 284 298 307 311 321
329 334 339 341 342 345 343 339 338 336 335 334 335 332 327 324 316 313 286 284 46 321 295 272 273 270 264 280 235 210 229 206 214 229 231 239 233 241 251 268 277 288 293 278 277 282 281
315 318 325 331 334 338 336 337 338 336 334 332 333 328 327 321 313 290 290 291 344 301 277 278 268 258 250 243 237 235 213 212 221 226 235 241 241 234 241 233 254 260 264 274 281 288 290
298 307 316 323 328 332 332 333 335 334 331 330 329 327 328 328 289 329 288 17 306 313 277 276 254 236 241 241 235 235 240 221 220 233 225 240 246 251 260 232 261 265 264 251 254 260 271
281 291 302 311 319 323 324 327 328 329 325 324 321 323 325 318 306 293 330 331 316 278 274 285 250 226 217 229 231 225 223 235 228 231 240 256 257 254 237 253 260 248 262 276 288 275 265
267 272 280 290 299 311 319 323 324 324 323 320 318 319 327 301 219 261 280 311 290 241 250 259 279 283 210 215 230 233 220 215 236 233 244 250 252 263 231 242 239 255 262 254 260 264 258
258 260 264 276 292 304 312 316 319 320 321 318 315 307 299 293 255 345 321 284 238 242 274 250 254 269 217 233 235 221 232 225 212 232 226 244 251 255 255 261 255 242 240 245 240 237 242
259 259 261 264 276 291 301 310 315 318 318 316 313 307 247 232 245 266 273 253 250 266 247 271 287 289 278 231 232 232 234 235 212 221 233 232 238 239 247 227 241 247 234 245 250 250 271
260 256 256 257 265 280 297 307 314 320 319 322 313 295 256 219 223 242 250 235 242 254 275 289 322 299 283 276 269 228 226 234 227 219 237 247 254 238 227 232 220 233 258 246 263 277 279
263 256 254 256 261 277 296 310 320 321 321 323 313 293 254 119 160 229 238 254 278 277 277 292 283 292 296 290 281 276 269 243 229 236 230 229 250 259 265 248 219 220 235 242 254 262 278
268 253 248 248 256 269 290 309 319 323 325 316 267 277 106 153 191 234 245 258 262 255 263 279 303 293 297 299 308 312 310 264 305 242 239 241 244 251 241 254 238 198 226 243 263 256 244
282 257 245 240 243 259 281 309 320 333 332 322 291 273 123 208 236 237 252 260 262 276 288 282 231 277 287 297 319 295 267 341 338 318 236 229 235 238 247 251 206 225 238 220 244 258 269
279 272 246 230 231 245 269 299 314 335 359 319 283 291 265 222 256 250 278 258 246 273 280 274 279 279 262 282 287 291 301 334 277 268 9 326 245 239 237 232 252 208 239 243 218 227 259
279 273 249 217 222 235 256 280 302 317 345 307 278 290 185 214 258 280 291 297 309 258 259 276 287 290 291 269 268 273 280 288 310 290 340 311 286 287 242 242 204 252 226 231 235 225 225
281 278 250 210 216 226 242 262 289 305 334 295 250 288 348 270 323 324 312 298 308 305 306 235 262 254 264 280 282 277 274 277 272 286 286 300 292 298 283 264 284 293 285 255 237 253 253
282 269 242 210 210 217 233 252 282 306 324 254 294 333 340 303 296 292 266 261 275 289 339 316 306 255 281 263 254 272 274 277 286 316 341 319 274 283 279 281 287 234 239 239 244 230 241
283 272 237 211 206 210 222 242 275 312 332 291 338 341 304 291 291 278 327 314 266 305 282 315 309 269 262 258 304 276 247 270 275 315 257 341 302 245 276 7 294 355 249 331 234 267 359
267 263 243 212 205 207 213 227 255 289 327 308 298 315 293 290 286 338 348 313 287 300 298 318 296 283 321 334 308 298 298 265 257 256 146 40 310 298 283 271 248 3 321 345 105 82 58
265 255 247 214 201 204 208 219 238 266 302 293 305 291 298 293 292 299 0 247 289 302 311 310 306 329 306 288 276 253 256 268 266 240 206 175 245 296 292 283 311 341 7 341 29 36 49
263 242 243 214 199 197 203 212 227 251 294 284 278 298 280 288 250 343 323 295 300 305 301 318 108 302 305 283 288 243 234 229 229 246 249 206 226 265 285 296 300 76 359 345 277 79 28
260 240 239 211 195 193 202 207 218 233 271 289 294 293 274 284 273 301 314 342 316 325 299 318 324 303 307 283 30 296 294 323 245 243 242 208 230 237 240 253 247 29 174 217 353 88 38
251 235 233 208 193 191 199 205 214 225 255 281 298 278 296 290 291 282 299 305 299 302 328 345 307 290 284 30 73 335 309 341 319 19 320 54 334 243 240 248 234 6 37 23 36 40 44
259 239 223 203 186 188 195 203 212 222 246 283 273 230 301 272 288 304 286 276 266 273 290 303 26 302 340 316 26 109 319 328 346 63 239 187 138 298 12 72 87 79 100 78 62 58 43